{"data":{"norad_id":53570,"intl_designator":"2022-101AV","name":"STARLINK-4550","alt_names":[],"object_type":"PAYLOAD","status":"ACTIVE","operator":null,"country":"US","launch_date":"2022-08-19","launch_site_code":"AFETR","launch_vehicle":null,"mission":null,"orbit_class":"UNKNOWN","rcs_meters":null,"size_class":null,"mass_kg":null,"dimensions":null,"purposes":["comms"],"wikipedia_slug":null,"has_3d_model":false,"image_url":null,"decayed_at":null,"tle_current":{"epoch":"2026-09-20T15:53:46.322880Z","epoch_age_seconds":64995,"freshness":"FRESH","line1":"1 53570U 22101AV  26263.66234170  .00000753  00000+0  34241-4 0  9996","line2":"2 53570  53.1582 243.1706 0001317  91.9265 268.1889 15.33544500226780","mean_motion":15.335445,"eccentricity":0.0001317,"inclination_deg":53.1582,"raan_deg":243.1706,"arg_perigee_deg":91.9265,"mean_anomaly_deg":268.1889,"bstar":3.4241e-5,"rev_number":22678,"period_min":93.900111799821,"perigee_km":464.34587479669,"apogee_km":466.1484221814,"semimajor_km":6843.384148489,"source":"CELESTRAK","updated_at":"2026-09-21T09:00:32.930909Z"}}}